TITAN 3C TRANSTAGE R/B, 2770

Orbit data source: Space-Track

TITAN 3C TRANSTAGE R/B, 2770 is space debris in HEO originally from a launch on Fri, 28 Apr 1967 UTC launched from the Air Force Eastern Test Range (AFETR). Debris objects in space refer to the collection of defunct objects orbiting the Earth. Examples of debris include non-operational satellites, rocket bodies, and fragments generated from explosions, collisions, or faulty payload assembly.

Loading next visibility...
Identifier
2770, 1967-040F
Orbit
HEO
Country
Flag of USUS
Related business
Manufacturer
Martin Marietta
Mission
Spacecraft
Bus & Motor
TRANSTAGE, Unknown motor
Mass
3,103 kg wet, 3,103 kg dry
Launch date (UTC)
1967-04-28 (58 years ago)
Launch vehicle
Unknown
Launch site
Air Force Eastern Test Range (AFETR)
Object type
Payload
Rocket body
Debris
Shape & HBR
Cyl + 2 Nozzle, 2.3 m
Radar Cross Section
14.974 m², Large (>1 m²)

Expand to show TLE details & history
Last TLE update: in 1 day

TLE from in 1 day
0 TITAN 3C TRANSTAGE R/B
1 02770U 67040F   25261.38147107 -.00001146  00000-0  00000-0 0  9993
2 02770  17.7190 215.1178 7833511 340.5066 359.1852  0.50944568 21917
Epoch: 2025-09-18T09:09Z
TLE epoch observation values (Epoch: 2025-09-18T09:09:19.1Z)
Latitude
-5.94887°
Longitude
61.16747°
Altitude
7,826.92 km
Speed
7.078 km/s
True Right ascension
13h 04m 09s
True Declination
-5° 55' 52"
Sunlit
Object was in daylight at epoch
Visualization orbit readout
Latitude
Unknown
Longitude
Unknown
Altitude
Unknown
Speed
Unknown
Apparent Right ascension
Unknown
Apparent Declination
Unknown
Sunlit
N/A
Visualization observer readout
Local Sidereal Time
22:49:31
Azimuth
Unknown
Elevation
Unknown
Doppler factor
Unknown
Orbital elements
Apogee altitude
111,723.525 km
Perigee altitude
7,969.344 km
Semi-major axis
66,224.571 km
Eccentricity
0.78335
Inclination
17.719°
RAAN
215.1178°
Arg. of periapsis
340.5066°
True anomaly
349.26513°
Mean anomaly
359.1852°
Eccentric anomaly
356.24876°
Mean motion
0.12735 °/min
Orbital period
2,826.75 mins
BSTAR
0
Loading maneuver chart data...
Computing Atmospheric mass density...
Loading historical data...
Loading historical data...
Loading historical data...
Loading historical data...
Loading historical data...
Loading historical data...
Loading historical data...

Documentation

Showing up to 5 results
|